Flag for Spain Weather past 2 weeks in Santa Cruz de Tenerife, Canary Islands, Spain

Now
66 °F

Passing clouds.


Feels Like: 66 °F
Forecast: 74 / 79 °F
Wind: 7 mph from Northwest

Location: Tenerife / Los Rodeos

Current Time: Sep 18, 2014 at 12:58:38 AM

Latest Report: Sep 17, 2014 at 11:00 PM


Visibility: N/A

Pressure: 30.07 "Hg

Humidity: 88%

Dew point: 63 °F

Location of Santa Cruz de TenerifeLocation

Historic Weather in Santa Cruz de Tenerife — Graph

°F

Santa Cruz de Tenerife temperature yesterday

Maximum temperature yesterday: 75 °F (at 1:30 PM)
Minimum temperature yesterday: 64 °F (at 6:00 AM)
Average temperature yesterday: 70 °F

Past Weeks' High & Low Weather Summary

 TemperatureHumidityPressure
High79 °F (Sep 5, 3:30 PM)100% (Sep 2, 11:00 PM)30.21 "Hg (Sep 2, 11:00 PM)
Low59 °F (Sep 3, 8:30 AM)50% (Sep 13, 6:00 PM)29.95 "Hg (Sep 16, 6:00 AM)
Average71 °F81%30.10 "Hg
* Reported Sep 2 11:00 PM — Sep 17 11:00 PM, Santa Cruz de Tenerife, Weather by CustomWeather, © 2014

Note: Actual official high and low records may vary slightly from our data, if they occured in-between our weather recording intervals... More about our weather records

Advertising

Santa Cruz de Tenerife weather history for previous 24 hours

 ConditionsComfort  
Time TempWeatherWind HumidityBarometerVisibility
11:00 PM
Sep 17
66 °FPassing clouds.7 mph88%30.07 "HgN/A
10:30 PM66 °FPassing clouds.7 mph88%30.07 "HgN/A
10:00 PM66 °FPassing clouds.10 mph88%30.04 "HgN/A
9:30 PM66 °FPassing clouds.8 mph88%30.04 "HgN/A
9:00 PM66 °FPartly sunny.8 mph88%30.04 "HgN/A
8:30 PM68 °FPartly sunny.12 mph83%30.04 "HgN/A
8:00 PM68 °FPartly sunny.10 mph83%30.04 "HgN/A
7:30 PM68 °FPartly sunny.12 mph78%30.04 "HgN/A
7:00 PM70 °FPartly sunny.10 mph78%30.04 "HgN/A
6:30 PM70 °FScattered clouds.14 mph78%30.01 "HgN/A
6:00 PM72 °FScattered clouds.12 mph73%30.01 "HgN/A
5:30 PM73 °FPassing clouds.14 mph61%30.01 "HgN/A
5:00 PM75 °FPassing clouds.15 mph50%30.01 "HgN/A
4:30 PM75 °FScattered clouds.15 mph50%30.01 "HgN/A
4:00 PM75 °FScattered clouds.14 mph54%30.01 "HgN/A
3:30 PM73 °FScattered clouds.14 mph57%30.04 "HgN/A
3:00 PM73 °FScattered clouds.14 mph61%30.04 "HgN/A
2:30 PM73 °FScattered clouds.15 mph61%30.04 "HgN/A
2:00 PM75 °FScattered clouds.15 mph54%30.04 "HgN/A
1:30 PM75 °FScattered clouds.14 mph57%30.04 "HgN/A
1:00 PM73 °FScattered clouds.13 mph61%30.04 "HgN/A
12:30 PM73 °FScattered clouds.13 mph65%30.07 "HgN/A
12:00 PM73 °FPassing clouds.13 mph65%30.07 "HgN/A
11:30 AM72 °FPassing clouds.13 mph69%30.07 "HgN/A
11:00 AM70 °FScattered clouds.13 mph73%30.04 "HgN/A
10:30 AM70 °FScattered clouds.10 mph73%30.04 "HgN/A
10:00 AM68 °FScattered clouds.10 mph83%30.04 "HgN/A
9:30 AM66 °FScattered clouds.12 mph88%30.04 "HgN/A
9:00 AM66 °FScattered clouds.12 mph88%30.04 "HgN/A
8:30 AM64 °FPartly cloudy.9 mph88%30.04 "HgN/A
8:00 AM64 °FPartly cloudy.9 mph88%30.01 "HgN/A
7:30 AM64 °FPartly cloudy.9 mph94%30.01 "HgN/A
7:00 AM64 °FPassing clouds.14 mph94%30.01 "HgN/A
6:30 AM64 °FPassing clouds.12 mph88%30.01 "HgN/A
6:00 AM64 °FPassing clouds.10 mph88%30.01 "HgN/A
Weather by CustomWeather, © 2014

See weather overviewHow to use our weather pages